Time,TemperatureF,DewpointF,PressureIn,WindDirection,WindDirectionDegrees,WindSpeedMPH,WindSpeedGustMPH,Humidity,HourlyPrecipIn,Conditions,Clouds,dailyrainin,SolarRadiationWatts/m^2,SoftwareType,DateUTC
2013-04-15 00:02:00,32.0,27.0,-100.00,SW,221,1.0,2.0,82,0.00,,,0.02,0.000000,,2013-04-15 07:02:00,
2013-04-15 00:31:00,31.0,26.0,-100.00,ENE,65,1.0,2.0,82,0.00,,,0.02,0.000000,,2013-04-15 07:31:00,
2013-04-15 00:53:00,31.0,26.0,-100.00,ENE,65,1.0,2.0,82,0.00,,,0.02,0.000000,,2013-04-15 07:53:00,
2013-04-15 01:02:00,31.0,26.0,-100.00,ENE,65,1.0,2.0,82,0.00,,,0.02,0.000000,,2013-04-15 08:02:00,
2013-04-15 01:12:00,31.0,26.0,-100.00,ENE,65,1.0,2.0,82,0.00,,,0.02,0.000000,,2013-04-15 08:12:00,
2013-04-15 01:22:00,31.0,26.0,-100.00,ENE,65,1.0,2.0,82,0.00,,,0.02,0.000000,,2013-04-15 08:22:00,
2013-04-15 01:31:00,30.0,27.0,-100.00,NE,55,0.0,2.0,89,0.00,,,0.02,0.000000,,2013-04-15 08:31:00,
2013-04-15 01:52:00,30.0,27.0,-100.00,NE,55,0.0,2.0,89,0.00,,,0.02,0.000000,,2013-04-15 08:52:00,
2013-04-15 02:02:00,30.0,27.0,-100.00,NE,55,0.0,2.0,89,0.00,,,0.02,0.000000,,2013-04-15 09:02:00,
2013-04-15 02:12:00,30.0,27.0,-100.00,NE,55,0.0,2.0,89,0.00,,,0.02,0.000000,,2013-04-15 09:12:00,
2013-04-15 02:22:00,30.0,27.0,-100.00,NE,55,0.0,2.0,89,0.00,,,0.02,0.000000,,2013-04-15 09:22:00,
2013-04-15 02:31:00,30.0,27.0,-100.00,North,356,1.0,2.0,90,0.00,,,0.02,0.000000,,2013-04-15 09:31:00,
2013-04-15 02:53:00,30.0,27.0,-100.00,North,356,1.0,2.0,90,0.00,,,0.02,0.000000,,2013-04-15 09:53:00,
2013-04-15 03:02:00,30.0,27.0,-100.00,North,356,1.0,2.0,90,0.00,,,0.02,0.000000,,2013-04-15 10:02:00,
2013-04-15 03:13:00,30.0,27.0,-100.00,North,356,1.0,2.0,90,0.00,,,0.02,0.000000,,2013-04-15 10:13:00,
2013-04-15 03:23:00,30.0,27.0,-100.00,North,356,1.0,2.0,90,0.00,,,0.02,0.000000,,2013-04-15 10:23:00,
2013-04-15 03:31:00,30.0,28.0,-100.00,NW,321,0.0,3.0,91,0.00,,,0.02,0.000000,,2013-04-15 10:31:00,
2013-04-15 03:53:00,30.0,28.0,-100.00,NW,321,0.0,3.0,91,0.00,,,0.02,0.000000,,2013-04-15 10:53:00,
2013-04-15 04:03:00,30.0,28.0,-100.00,NW,321,0.0,3.0,91,0.00,,,0.02,0.000000,,2013-04-15 11:03:00,
2013-04-15 04:12:00,30.0,28.0,-100.00,NW,321,0.0,3.0,91,0.00,,,0.02,0.000000,,2013-04-15 11:12:00,
2013-04-15 04:22:00,30.0,28.0,-100.00,NW,321,0.0,3.0,91,0.00,,,0.02,0.000000,,2013-04-15 11:22:00,
2013-04-15 04:31:00,30.0,28.0,-100.00,SSW,192,2.0,2.0,92,0.00,,,0.02,0.000000,,2013-04-15 11:31:00,
2013-04-15 04:53:00,30.0,28.0,-100.00,SSW,192,2.0,2.0,92,0.00,,,0.02,0.000000,,2013-04-15 11:53:00,
2013-04-15 05:03:00,30.0,28.0,-100.00,SSW,192,2.0,2.0,92,0.00,,,0.02,0.000000,,2013-04-15 12:03:00,
2013-04-15 05:13:00,30.0,28.0,-100.00,SSW,192,2.0,2.0,92,0.00,,,0.02,0.000000,,2013-04-15 12:13:00,
2013-04-15 05:22:00,30.0,28.0,-100.00,SSW,192,2.0,2.0,92,0.00,,,0.02,0.000000,,2013-04-15 12:22:00,
2013-04-15 05:31:00,30.0,28.0,-100.00,WSW,241,0.0,3.0,92,0.00,,,0.02,0.000000,,2013-04-15 12:31:00,
2013-04-15 05:53:00,30.0,28.0,-100.00,WSW,241,0.0,3.0,92,0.00,,,0.02,0.000000,,2013-04-15 12:53:00,
2013-04-15 06:03:00,30.0,28.0,-100.00,WSW,241,0.0,3.0,92,0.00,,,0.02,0.000000,,2013-04-15 13:03:00,
2013-04-15 06:12:00,30.0,28.0,-100.00,WSW,241,0.0,3.0,92,0.00,,,0.02,0.000000,,2013-04-15 13:12:00,
2013-04-15 06:22:00,30.0,28.0,-100.00,WSW,241,0.0,3.0,92,0.00,,,0.02,0.000000,,2013-04-15 13:22:00,
2013-04-15 06:31:00,29.0,27.0,-100.00,NW,306,0.0,3.0,94,0.00,,,0.02,0.000000,,2013-04-15 13:31:00,
2013-04-15 06:53:00,29.0,27.0,-100.00,NW,306,0.0,3.0,94,0.00,,,0.02,0.000000,,2013-04-15 13:53:00,
2013-04-15 07:04:00,29.0,27.0,-100.00,NW,306,0.0,3.0,94,0.00,,,0.02,0.000000,,2013-04-15 14:04:00,
2013-04-15 07:12:00,29.0,27.0,-100.00,NW,306,0.0,3.0,94,0.00,,,0.02,0.000000,,2013-04-15 14:12:00,
2013-04-15 07:22:00,29.0,27.0,-100.00,NW,306,0.0,3.0,94,0.00,,,0.02,0.000000,,2013-04-15 14:22:00,
2013-04-15 07:31:00,31.0,29.0,-100.00,East,98,1.0,3.0,94,0.00,,,0.02,26.000000,,2013-04-15 14:31:00,
2013-04-15 07:54:00,31.0,29.0,-100.00,East,98,1.0,3.0,94,0.00,,,0.02,26.000000,,2013-04-15 14:54:00,
2013-04-15 08:03:00,31.0,29.0,-100.00,East,98,1.0,3.0,94,0.00,,,0.02,26.000000,,2013-04-15 15:03:00,
2013-04-15 08:12:00,31.0,29.0,-100.00,East,98,1.0,3.0,94,0.00,,,0.02,26.000000,,2013-04-15 15:12:00,
2013-04-15 08:22:00,31.0,29.0,-100.00,East,98,1.0,3.0,94,0.00,,,0.02,26.000000,,2013-04-15 15:22:00,
2013-04-15 08:31:00,33.0,27.0,-100.00,NNE,20,2.0,3.0,79,0.01,,,0.03,85.000000,,2013-04-15 15:31:00,
2013-04-15 08:54:00,33.0,27.0,-100.00,NNE,20,2.0,3.0,79,0.01,,,0.03,85.000000,,2013-04-15 15:54:00,
2013-04-15 09:04:00,33.0,27.0,-100.00,NNE,20,2.0,3.0,79,0.01,,,0.03,85.000000,,2013-04-15 16:04:00,
2013-04-15 09:13:00,33.0,27.0,-100.00,NNE,20,2.0,3.0,79,0.01,,,0.03,85.000000,,2013-04-15 16:13:00,
2013-04-15 09:23:00,33.0,27.0,-100.00,NNE,20,2.0,3.0,79,0.01,,,0.03,85.000000,,2013-04-15 16:23:00,
2013-04-15 09:31:00,37.0,28.0,-100.00,NE,38,3.0,5.0,71,0.00,,,0.03,327.000000,,2013-04-15 16:31:00,
2013-04-15 09:54:00,37.0,28.0,-100.00,NE,38,3.0,5.0,71,0.00,,,0.03,327.000000,,2013-04-15 16:54:00,
2013-04-15 10:03:00,37.0,28.0,-100.00,NE,38,3.0,5.0,71,0.00,,,0.03,327.000000,,2013-04-15 17:03:00,
2013-04-15 10:14:00,37.0,28.0,-100.00,NE,38,3.0,5.0,71,0.00,,,0.03,327.000000,,2013-04-15 17:14:00,
2013-04-15 10:21:00,37.0,28.0,-100.00,NE,38,3.0,5.0,71,0.00,,,0.03,327.000000,,2013-04-15 17:21:00,
2013-04-15 10:31:00,37.0,23.0,-100.00,NE,51,3.0,7.0,57,0.00,,,0.03,419.000000,,2013-04-15 17:31:00,
2013-04-15 10:52:00,37.0,23.0,-100.00,NE,51,3.0,7.0,57,0.00,,,0.03,419.000000,,2013-04-15 17:52:00,
2013-04-15 11:03:00,37.0,23.0,-100.00,NE,51,3.0,7.0,57,0.00,,,0.03,419.000000,,2013-04-15 18:03:00,
2013-04-15 11:12:00,37.0,23.0,-100.00,NE,51,3.0,7.0,57,0.00,,,0.03,419.000000,,2013-04-15 18:12:00,
2013-04-15 11:23:00,37.0,23.0,-100.00,NE,51,3.0,7.0,57,0.00,,,0.03,419.000000,,2013-04-15 18:23:00,
2013-04-15 11:31:00,41.0,25.0,-100.00,ENE,65,3.0,6.0,53,0.00,,,0.03,578.000000,,2013-04-15 18:31:00,
2013-04-15 11:52:00,41.0,25.0,-100.00,ENE,65,3.0,6.0,53,0.00,,,0.03,578.000000,,2013-04-15 18:52:00,
2013-04-15 12:02:00,41.0,25.0,-100.00,ENE,65,3.0,6.0,53,0.00,,,0.03,578.000000,,2013-04-15 19:02:00,
2013-04-15 12:12:00,41.0,25.0,-100.00,ENE,65,3.0,6.0,53,0.00,,,0.03,578.000000,,2013-04-15 19:12:00,
2013-04-15 12:22:00,41.0,25.0,-100.00,ENE,65,3.0,6.0,53,0.00,,,0.03,578.000000,,2013-04-15 19:22:00,
2013-04-15 12:31:00,39.0,25.0,-100.00,NNE,26,3.0,9.0,57,0.00,,,0.03,305.000000,,2013-04-15 19:31:00,
2013-04-15 13:01:00,39.0,25.0,-100.00,NNE,26,3.0,9.0,57,0.00,,,0.03,305.000000,,2013-04-15 20:01:00,
2013-04-15 13:02:00,39.0,25.0,-100.00,NNE,26,3.0,9.0,57,0.00,,,0.03,305.000000,,2013-04-15 20:02:00,
2013-04-15 13:11:00,39.0,25.0,-100.00,NNE,26,3.0,9.0,57,0.00,,,0.03,305.000000,,2013-04-15 20:11:00,
2013-04-15 13:22:00,39.0,25.0,-100.00,NNE,26,3.0,9.0,57,0.00,,,0.03,305.000000,,2013-04-15 20:22:00,
2013-04-15 13:31:00,36.0,26.0,-100.00,NNE,28,3.0,10.0,67,0.01,,,0.04,209.000000,,2013-04-15 20:31:00,
2013-04-15 13:52:00,36.0,26.0,-100.00,NNE,28,3.0,10.0,67,0.01,,,0.04,209.000000,,2013-04-15 20:52:00,
2013-04-15 14:02:00,36.0,26.0,-100.00,NNE,28,3.0,10.0,67,0.01,,,0.04,209.000000,,2013-04-15 21:02:00,
2013-04-15 14:12:00,36.0,26.0,-100.00,NNE,28,3.0,10.0,67,0.01,,,0.04,209.000000,,2013-04-15 21:12:00,
2013-04-15 14:22:00,36.0,26.0,-100.00,NNE,28,3.0,10.0,67,0.01,,,0.04,209.000000,,2013-04-15 21:22:00,
2013-04-15 14:31:00,38.0,29.0,-100.00,NNE,26,4.0,10.0,71,0.00,,,0.04,323.000000,,2013-04-15 21:31:00,
2013-04-15 14:53:00,38.0,29.0,-100.00,NNE,26,4.0,10.0,71,0.00,,,0.04,323.000000,,2013-04-15 21:53:00,
2013-04-15 15:02:00,38.0,29.0,-100.00,NNE,26,4.0,10.0,71,0.00,,,0.04,323.000000,,2013-04-15 22:02:00,
2013-04-15 15:13:00,38.0,29.0,-100.00,NNE,26,4.0,10.0,71,0.00,,,0.04,323.000000,,2013-04-15 22:13:00,
2013-04-15 15:22:00,38.0,29.0,-100.00,NNE,26,4.0,10.0,71,0.00,,,0.04,323.000000,,2013-04-15 22:22:00,
2013-04-15 15:31:00,34.0,30.0,-100.00,NNE,16,5.0,12.0,85,0.00,,,0.04,138.000000,,2013-04-15 22:31:00,
2013-04-15 15:52:00,34.0,30.0,-100.00,NNE,16,5.0,12.0,85,0.00,,,0.04,138.000000,,2013-04-15 22:52:00,
2013-04-15 16:02:00,34.0,30.0,-100.00,NNE,16,5.0,12.0,85,0.00,,,0.04,138.000000,,2013-04-15 23:02:00,
2013-04-15 16:12:00,34.0,30.0,-100.00,NNE,16,5.0,12.0,85,0.00,,,0.04,138.000000,,2013-04-15 23:12:00,
2013-04-15 16:22:00,34.0,30.0,-100.00,NNE,16,5.0,12.0,85,0.00,,,0.04,138.000000,,2013-04-15 23:22:00,
2013-04-15 16:31:00,37.0,30.0,-100.00,NNE,13,3.0,8.0,76,0.00,,,0.04,184.000000,,2013-04-15 23:31:00,
2013-04-15 16:52:00,37.0,30.0,-100.00,NNE,13,3.0,8.0,76,0.00,,,0.04,184.000000,,2013-04-15 23:52:00,
2013-04-15 17:02:00,37.0,30.0,-100.00,NNE,13,3.0,8.0,76,0.00,,,0.04,184.000000,,2013-04-16 00:02:00,
2013-04-15 17:12:00,37.0,30.0,-100.00,NNE,13,3.0,8.0,76,0.00,,,0.04,184.000000,,2013-04-16 00:12:00,
2013-04-15 17:22:00,37.0,30.0,-100.00,NNE,13,3.0,8.0,76,0.00,,,0.04,184.000000,,2013-04-16 00:22:00,
2013-04-15 17:31:00,35.0,24.0,-100.00,NNE,14,5.0,13.0,63,0.01,,,0.03,274.000000,,2013-04-16 00:31:00,
2013-04-15 17:52:00,35.0,24.0,-100.00,NNE,14,5.0,13.0,63,0.01,,,0.03,274.000000,,2013-04-16 00:52:00,
2013-04-15 18:02:00,35.0,24.0,-100.00,NNE,14,5.0,13.0,63,0.01,,,0.03,274.000000,,2013-04-16 01:02:00,
2013-04-15 18:12:00,35.0,24.0,-100.00,NNE,14,5.0,13.0,63,0.01,,,0.03,274.000000,,2013-04-16 01:12:00,
2013-04-15 18:22:00,35.0,24.0,-100.00,NNE,14,5.0,13.0,63,0.01,,,0.03,274.000000,,2013-04-16 01:22:00,
2013-04-15 18:31:00,36.0,32.0,-100.00,NNE,28,2.0,6.0,84,0.00,,,0.03,115.000000,,2013-04-16 01:31:00,
2013-04-15 18:52:00,36.0,32.0,-100.00,NNE,28,2.0,6.0,84,0.00,,,0.03,115.000000,,2013-04-16 01:52:00,
2013-04-15 19:02:00,36.0,32.0,-100.00,NNE,28,2.0,6.0,84,0.00,,,0.03,115.000000,,2013-04-16 02:02:00,
2013-04-15 19:12:00,36.0,32.0,-100.00,NNE,28,2.0,6.0,84,0.00,,,0.03,115.000000,,2013-04-16 02:12:00,
2013-04-15 19:22:00,36.0,32.0,-100.00,NNE,28,2.0,6.0,84,0.00,,,0.03,115.000000,,2013-04-16 02:22:00,
2013-04-15 19:31:00,33.0,28.0,-100.00,NW,321,2.0,4.0,82,0.00,,,0.03,33.000000,,2013-04-16 02:31:00,
2013-04-15 19:52:00,33.0,28.0,-100.00,NW,321,2.0,4.0,82,0.00,,,0.03,33.000000,,2013-04-16 02:52:00,
2013-04-15 20:02:00,33.0,28.0,-100.00,NW,321,2.0,4.0,82,0.00,,,0.03,33.000000,,2013-04-16 03:02:00,
2013-04-15 20:12:00,33.0,28.0,-100.00,NW,321,2.0,4.0,82,0.00,,,0.03,33.000000,,2013-04-16 03:12:00,
2013-04-15 20:22:00,33.0,28.0,-100.00,NW,321,2.0,4.0,82,0.00,,,0.03,33.000000,,2013-04-16 03:22:00,
2013-04-15 20:31:00,31.0,29.0,-100.00,North,354,2.0,8.0,91,0.00,,,0.03,2.000000,,2013-04-16 03:31:00,
2013-04-15 20:52:00,31.0,29.0,-100.00,North,354,2.0,8.0,91,0.00,,,0.03,2.000000,,2013-04-16 03:52:00,
2013-04-15 21:03:00,31.0,29.0,-100.00,North,354,2.0,8.0,91,0.00,,,0.03,2.000000,,2013-04-16 04:03:00,
2013-04-15 21:12:00,31.0,29.0,-100.00,North,354,2.0,8.0,91,0.00,,,0.03,2.000000,,2013-04-16 04:12:00,
2013-04-15 21:23:00,31.0,29.0,-100.00,North,354,2.0,8.0,91,0.00,,,0.03,2.000000,,2013-04-16 04:23:00,
2013-04-15 21:31:00,30.0,28.0,-100.00,SW,221,3.0,5.0,94,0.00,,,0.03,0.000000,,2013-04-16 04:31:00,
2013-04-15 21:53:00,30.0,28.0,-100.00,SW,221,3.0,5.0,94,0.00,,,0.03,0.000000,,2013-04-16 04:53:00,
2013-04-15 22:02:00,30.0,28.0,-100.00,SW,221,3.0,5.0,94,0.00,,,0.03,0.000000,,2013-04-16 05:02:00,
2013-04-15 22:12:00,30.0,28.0,-100.00,SW,221,3.0,5.0,94,0.00,,,0.03,0.000000,,2013-04-16 05:12:00,
2013-04-15 22:22:00,30.0,28.0,-100.00,SW,221,3.0,5.0,94,0.00,,,0.03,0.000000,,2013-04-16 05:22:00,
2013-04-15 22:31:00,29.0,27.0,-100.00,South,183,2.0,5.0,93,0.00,,,0.03,0.000000,,2013-04-16 05:31:00,
2013-04-15 22:52:00,29.0,27.0,-100.00,South,183,2.0,5.0,93,0.00,,,0.03,0.000000,,2013-04-16 05:52:00,
2013-04-15 23:02:00,29.0,27.0,-100.00,South,183,2.0,5.0,93,0.00,,,0.03,0.000000,,2013-04-16 06:02:00,
2013-04-15 23:12:00,29.0,27.0,-100.00,South,183,2.0,5.0,93,0.00,,,0.03,0.000000,,2013-04-16 06:12:00,
2013-04-15 23:22:00,29.0,27.0,-100.00,South,183,2.0,5.0,93,0.00,,,0.03,0.000000,,2013-04-16 06:22:00,
2013-04-15 23:31:00,28.0,26.0,-100.00,SW,227,2.0,5.0,93,0.00,,,0.03,0.000000,,2013-04-16 06:31:00,
2013-04-15 23:52:00,28.0,26.0,-100.00,SW,227,2.0,5.0,93,0.00,,,0.03,0.000000,,2013-04-16 06:52:00,